Weather History for KBFD - March, 2014

Change the Weather History Date:

Saturday, March 29, 2014

  Actual Average Record
Temperature  
Mean Temperature 37 °F 37 °F  
Max Temperature 43 °F 47 °F 74 °F (1977)
Min Temperature 30 °F 26 °F 9 °F (1959)
Degree Days  
Heating Degree Days 28 23  
Month to date heating degree days 1114 815  
Since 1 July heating degree days 6780 6385  
Cooling Degree Days 0 0  
Month to date cooling degree days 0 0  
Year to date cooling degree days 0 0  
Moisture  
Dew Point 31 °F    
Average Humidity 81    
Maximum Humidity 92    
Minimum Humidity 70    
Precipitation  
Precipitation 0.42 in 0.11 in 0.49 in (1984)
Month to date precipitation 2.00 3.13  
Year to date precipitation 5.53 8.77  
Sea Level Pressure  
Sea Level Pressure 29.99 in    
Wind  
Wind Speed 9 mph (ENE)    
Max Wind Speed 16 mph    
Max Gust Speed 24 mph    
Visibility 4 miles    
Events Rain , Snow    
T = Trace of Precipitation, MM = Missing Value Source: NWS Daily Summary

Daily Weather History Graph

Daily Weather History Graph

Search for Another Location

Airport or City:

Trip Planner

Search our weather history database for the weather conditions in past years. The results will help you decide how hot, cold, wet, or windy it might be!

Date:

Astronomy

Mar. 29, 2014 Rise Set
Actual Time 7:02 AM EDT 7:36 PM EDT
Civil Twilight 6:34 AM EDT 8:04 PM EDT
Nautical Twilight 6:01 AM EDT 8:37 PM EDT
Astronomical Twilight 5:27 AM EDT 9:12 PM EDT
Moon 6:11 AM EDT (3/29) 6:39 PM EDT (3/29)
Length of Visible Light 13h 30m
Length of Day
12h 34m
Waning Crescent, 2% of the Moon is Illuminated
Mar 29
Waning Crescent
Mar 30
New
Apr 7
First Quarter
Apr 15
Full
Apr 22
Last Quarter

Hourly Weather History & Observations

Time (EDT) Temp. Windchill Dew Point Humidity Pressure Visibility Wind Dir Wind Speed Gust Speed Precip Events Conditions
12:44 AM 32.0 °F - 30.0 °F 92% 30.13 in 1.8 mi Calm Calm - N/A   Overcast
12:53 AM 32.0 °F 28.7 °F 30.0 °F 92% 30.17 in 0.8 mi North 3.5 mph - N/A   Overcast
1:46 AM 32.0 °F - 30.0 °F 92% 30.15 in 0.8 mi Calm Calm - N/A   Mist
1:53 AM 32.0 °F - 30.0 °F 92% 30.17 in 1.2 mi Calm Calm - N/A   Overcast
2:02 AM 32.0 °F - 30.0 °F 92% 30.14 in 2.5 mi Calm Calm - N/A   Overcast
2:12 AM 32.0 °F - 30.0 °F 92% 30.14 in 1.5 mi Calm Calm - N/A   Overcast
2:53 AM 32.0 °F 26.4 °F 30.0 °F 92% 30.15 in 2.0 mi ENE 5.8 mph - N/A   Overcast
3:19 AM 32.0 °F 25.6 °F 30.0 °F 92% 30.11 in 1.2 mi NNE 6.9 mph - N/A   Overcast
3:49 AM 32.0 °F 24.8 °F 30.2 °F 93% 30.10 in 0.8 mi NE 8.1 mph - N/A   Mist
3:53 AM 32.0 °F 24.8 °F 30.0 °F 92% 30.14 in 0.8 mi ENE 8.1 mph - N/A   Mist
4:22 AM 32.0 °F 28.7 °F 30.0 °F 92% 30.09 in 1.0 mi ENE 3.5 mph - N/A   Mist
4:53 AM 32.0 °F 24.8 °F 28.9 °F 88% 30.10 in 1.8 mi ENE 8.1 mph - N/A   Overcast
5:53 AM 32.0 °F 27.5 °F 30.0 °F 92% 30.12 in 1.0 mi East 4.6 mph - N/A   Mist
6:49 AM 32.0 °F 24.8 °F 28.4 °F 87% 30.10 in 2.0 mi East 8.1 mph - N/A   Overcast
6:53 AM 32.0 °F 24.8 °F 28.9 °F 88% 30.14 in 2.0 mi East 8.1 mph - N/A   Overcast
7:30 AM 32.0 °F 24.2 °F 28.9 °F 88% 30.11 in 1.5 mi East 9.2 mph - N/A   Overcast
7:50 AM 32.0 °F 24.8 °F 30.2 °F 93% 30.11 in 2.0 mi East 8.1 mph - N/A   Overcast
7:53 AM 32.0 °F 26.4 °F 30.0 °F 92% 30.16 in 2.0 mi East 5.8 mph - N/A   Overcast
8:31 AM 32.0 °F 24.2 °F 30.0 °F 92% 30.09 in 1.8 mi East 9.2 mph - N/A   Overcast
8:53 AM 32.0 °F 23.6 °F 30.0 °F 92% 30.13 in 2.0 mi East 10.4 mph - N/A   Overcast
9:19 AM 33.1 °F 24.9 °F 30.0 °F 89% 30.07 in 2.5 mi East 10.4 mph - N/A   Overcast
9:27 AM 33.1 °F 25.5 °F 30.9 °F 92% 30.07 in 4.0 mi East 9.2 mph - N/A   Overcast
9:53 AM 34.0 °F 26.0 °F 30.9 °F 89% 30.12 in 7.0 mi East 10.4 mph - N/A   Overcast
10:33 AM 35.1 °F 27.9 °F 32.0 °F 89% 30.05 in 10.0 mi East 9.2 mph - N/A   Overcast
10:53 AM 36.0 °F 27.5 °F 32.0 °F 86% 30.10 in 10.0 mi East 12.7 mph - N/A   Overcast
11:53 AM 39.9 °F 34.5 °F 34.0 °F 79% 30.07 in 10.0 mi ESE 8.1 mph - N/A   Overcast
12:53 PM 42.1 °F 35.7 °F 34.0 °F 73% 30.02 in 10.0 mi ENE 11.5 mph - N/A   Overcast
1:00 PM 43.0 °F 37.2 °F 35.1 °F 74% 29.98 in 10.0 mi ENE 10.4 mph - N/A   Overcast
1:53 PM 42.1 °F 36.6 °F 34.0 °F 73% 29.99 in 10.0 mi ENE 9.2 mph - N/A   Overcast
2:53 PM 39.0 °F 32.3 °F 33.1 °F 79% 29.95 in 4.0 mi East 10.4 mph - 0.02 in Rain Rain
3:53 PM 37.9 °F 31.5 °F 34.0 °F 86% 29.92 in 7.0 mi East 9.2 mph - 0.00 in   Overcast
4:41 PM 37.9 °F 32.1 °F 34.0 °F 86% 29.85 in 2.5 mi East 8.1 mph - 0.00 in   Overcast
4:53 PM 37.0 °F 30.4 °F 34.0 °F 89% 29.89 in 2.0 mi East 9.2 mph - 0.00 in   Overcast
5:38 PM 36.0 °F 28.5 °F 33.1 °F 89% 29.83 in 3.0 mi ENE 10.4 mph - 0.00 in Rain Light Rain
5:53 PM 36.0 °F 28.5 °F 33.1 °F 89% 29.87 in 4.0 mi NE 10.4 mph - 0.01 in Rain Light Rain
6:09 PM 36.0 °F 28.0 °F 32.0 °F 86% 29.82 in 4.0 mi ENE 11.5 mph 19.6 mph 0.00 in Rain Light Rain
6:38 PM 35.1 °F 27.9 °F 32.0 °F 89% 29.81 in 5.0 mi ENE 9.2 mph 18.4 mph 0.01 in Rain Light Rain
6:53 PM 35.1 °F 26.9 °F 32.0 °F 89% 29.85 in 4.0 mi ENE 11.5 mph - 0.02 in Rain Light Rain
7:53 PM 34.0 °F 25.0 °F 30.0 °F 85% 29.85 in 5.0 mi NE 12.7 mph 20.7 mph 0.10 in Rain Rain
8:53 PM 33.1 °F 25.5 °F 30.0 °F 89% 29.85 in 6.0 mi NNE 9.2 mph - 0.10 in Rain Rain
9:20 PM 32.0 °F 24.8 °F 28.9 °F 88% 29.80 in 5.0 mi NNE 8.1 mph - 0.03 in Rain Light Freezing Rain
9:41 PM 32.0 °F 23.0 °F 28.0 °F 85% 29.79 in 6.0 mi NNE 11.5 mph 18.4 mph 0.06 in Rain Light Freezing Rain
9:53 PM 32.0 °F 22.5 °F 28.9 °F 88% 29.84 in 6.0 mi NNE 12.7 mph 19.6 mph 0.07 in Rain Light Freezing Rain
10:30 PM 32.0 °F 22.5 °F 28.9 °F 88% 29.76 in 5.0 mi North 12.7 mph - 0.05 in Rain Light Freezing Rain
10:45 PM 33.1 °F 24.4 °F 28.9 °F 85% 29.76 in 5.0 mi NNE 11.5 mph 24.2 mph 0.06 in Rain Light Freezing Rain
10:53 PM 32.0 °F 23.0 °F 28.9 °F 88% 29.81 in 5.0 mi NNE 11.5 mph 21.9 mph 0.06 in Rain Light Freezing Rain
11:18 PM 32.0 °F 24.2 °F 28.9 °F 88% 29.76 in 4.0 mi NNE 9.2 mph - 0.01 in   Overcast
11:29 PM 32.0 °F 23.6 °F 28.9 °F 88% 29.76 in 3.0 mi North 10.4 mph - 0.02 in Rain Light Freezing Rain
11:49 PM 30.2 °F 19.8 °F 28.4 °F 93% 29.76 in 3.0 mi North 13.8 mph 19.6 mph 0.03 in Snow Light Snow
11:53 PM 30.9 °F 22.8 °F 28.0 °F 89% 29.80 in 3.0 mi North 9.2 mph 19.6 mph 0.03 in Snow Light Snow